TimeEDT,TemperatureF,Dew PointF,Humidity,Sea Level PressureIn,VisibilityMPH,Wind Direction,Wind SpeedMPH,Gust SpeedMPH,PrecipitationIn,Events,Conditions,WindDirDegrees,DateUTC
12:13 AM,73.4,62.6,69,30.11,10.0,SSE,4.6,-,N/A,,Clear,160,2013-06-22 04:13:00
12:33 AM,73.4,62.6,69,30.10,10.0,South,4.6,-,N/A,,Clear,170,2013-06-22 04:33:00
12:53 AM,73.4,60.8,65,30.10,10.0,SSE,5.8,-,N/A,,Clear,160,2013-06-22 04:53:00
1:13 AM,73.4,60.8,65,30.09,10.0,South,3.5,-,N/A,,Clear,170,2013-06-22 05:13:00
1:33 AM,73.4,60.8,65,30.09,10.0,South,5.8,-,N/A,,Clear,170,2013-06-22 05:33:00
1:53 AM,73.4,62.6,69,30.08,10.0,South,4.6,-,N/A,,Clear,190,2013-06-22 05:53:00
2:14 AM,73.4,62.6,69,30.08,10.0,South,4.6,-,N/A,,Clear,190,2013-06-22 06:14:00
2:34 AM,71.6,62.6,73,30.08,10.0,South,3.5,-,N/A,,Clear,190,2013-06-22 06:34:00
2:54 AM,73.4,62.6,69,30.08,10.0,South,4.6,-,N/A,,Clear,180,2013-06-22 06:54:00
3:14 AM,71.6,62.6,73,30.07,10.0,South,3.5,-,N/A,,Clear,190,2013-06-22 07:14:00
3:34 AM,71.6,62.6,73,30.06,10.0,South,5.8,-,N/A,,Clear,170,2013-06-22 07:34:00
3:54 AM,73.4,62.6,69,30.05,10.0,SSW,4.6,-,N/A,,Scattered Clouds,200,2013-06-22 07:54:00
4:14 AM,73.4,62.6,69,30.05,10.0,SSW,5.8,-,N/A,,Scattered Clouds,200,2013-06-22 08:14:00
4:34 AM,71.6,62.6,73,30.05,10.0,SSW,4.6,-,N/A,,Clear,200,2013-06-22 08:34:00
4:54 AM,71.6,62.6,73,30.05,10.0,SSW,4.6,-,N/A,,Clear,200,2013-06-22 08:54:00
5:15 AM,71.6,62.6,73,30.05,10.0,South,4.6,-,N/A,,Clear,190,2013-06-22 09:15:00
5:35 AM,69.8,62.6,78,30.04,10.0,South,6.9,-,N/A,,Clear,190,2013-06-22 09:35:00
5:55 AM,71.6,62.6,73,30.05,10.0,SSW,6.9,-,N/A,,Clear,200,2013-06-22 09:55:00
6:15 AM,71.6,64.4,78,30.06,10.0,SSW,4.6,-,N/A,,Mostly Cloudy,210,2013-06-22 10:15:00
6:35 AM,71.6,64.4,78,30.05,10.0,SSW,6.9,-,N/A,,Scattered Clouds,200,2013-06-22 10:35:00
6:55 AM,73.4,64.4,73,30.05,10.0,SSW,4.6,-,N/A,,Clear,210,2013-06-22 10:55:00
7:15 AM,73.4,64.4,73,30.06,10.0,SW,4.6,-,N/A,,Clear,220,2013-06-22 11:15:00
7:35 AM,73.4,66.2,78,30.06,10.0,SSW,4.6,-,N/A,,Clear,210,2013-06-22 11:35:00
7:55 AM,75.2,66.2,73,30.06,10.0,SSW,5.8,-,N/A,,Clear,210,2013-06-22 11:55:00
8:16 AM,77.0,66.2,69,30.07,10.0,SW,8.1,-,N/A,,Clear,230,2013-06-22 12:16:00
8:36 AM,78.8,66.2,65,30.08,10.0,SW,6.9,-,N/A,,Clear,220,2013-06-22 12:36:00
8:56 AM,78.8,66.2,65,30.08,10.0,WSW,9.2,-,N/A,,Clear,240,2013-06-22 12:56:00
9:16 AM,80.6,68.0,65,30.08,10.0,WSW,11.5,-,N/A,,Clear,240,2013-06-22 13:16:00
9:36 AM,80.6,69.8,70,30.09,10.0,WSW,13.8,-,N/A,,Clear,240,2013-06-22 13:36:00
9:56 AM,82.4,69.8,66,30.09,10.0,WSW,10.4,-,N/A,,Clear,240,2013-06-22 13:56:00
10:16 AM,82.4,69.8,66,30.09,10.0,West,11.5,-,N/A,,Clear,260,2013-06-22 14:16:00
10:31 AM,82.4,69.8,66,30.09,10.0,WSW,10.4,17.3,N/A,,Clear,250,2013-06-22 14:31:00
10:51 AM,84.2,69.8,62,30.09,10.0,WSW,10.4,-,N/A,,Clear,250,2013-06-22 14:51:00
11:12 AM,84.2,69.8,62,30.08,10.0,WSW,8.1,-,N/A,,Clear,250,2013-06-22 15:12:00
11:32 AM,84.2,71.6,66,30.07,10.0,SW,9.2,-,N/A,,Clear,230,2013-06-22 15:32:00
11:52 AM,86.0,71.6,62,30.07,10.0,WSW,11.5,-,N/A,,Clear,240,2013-06-22 15:52:00
12:12 PM,86.0,71.6,62,30.08,10.0,SW,10.4,-,N/A,,Clear,230,2013-06-22 16:12:00
12:32 PM,87.8,71.6,58,30.08,10.0,West,10.4,-,N/A,,Clear,260,2013-06-22 16:32:00
12:52 PM,87.8,71.6,58,30.08,10.0,WSW,13.8,17.3,N/A,,Clear,250,2013-06-22 16:52:00
1:12 PM,87.8,71.6,58,30.08,10.0,West,8.1,-,N/A,,Clear,270,2013-06-22 17:12:00
1:32 PM,87.8,71.6,58,30.07,10.0,WSW,10.4,17.3,N/A,,Scattered Clouds,250,2013-06-22 17:32:00
1:52 PM,89.6,73.4,59,30.06,10.0,West,9.2,-,N/A,,Scattered Clouds,260,2013-06-22 17:52:00
2:13 PM,89.6,73.4,59,30.05,10.0,WSW,9.2,-,N/A,,Scattered Clouds,250,2013-06-22 18:13:00
2:33 PM,89.6,71.6,55,30.04,10.0,SW,8.1,-,N/A,,Scattered Clouds,220,2013-06-22 18:33:00
2:53 PM,89.6,71.6,55,30.04,10.0,SSW,8.1,-,N/A,,Scattered Clouds,210,2013-06-22 18:53:00
3:13 PM,91.4,71.6,52,30.04,10.0,SSW,10.4,-,N/A,,Scattered Clouds,210,2013-06-22 19:13:00
3:33 PM,89.6,73.4,59,30.02,10.0,SSW,11.5,18.4,N/A,,Scattered Clouds,210,2013-06-22 19:33:00
3:53 PM,91.4,71.6,52,30.00,10.0,SSW,13.8,-,N/A,,Scattered Clouds,200,2013-06-22 19:53:00
4:14 PM,87.8,69.8,55,30.00,10.0,NNW,10.4,-,N/A,,Mostly Cloudy,330,2013-06-22 20:14:00
4:34 PM,80.6,69.8,70,30.00,1.5,NE,8.1,-,N/A,,Haze,40,2013-06-22 20:34:00
4:54 PM,73.4,69.8,88,30.02,5.0,NNW,20.7,29.9,N/A,Rain,Light Rain,340,2013-06-22 20:54:00
5:14 PM,73.4,69.8,88,30.05,1.8,North,19.6,28.8,N/A,Rain,Heavy Rain,360,2013-06-22 21:14:00
5:34 PM,71.6,68.0,88,30.10,4.0,WSW,15.0,28.8,N/A,Rain,Heavy Rain,250,2013-06-22 21:34:00
5:54 PM,71.6,68.0,88,30.06,4.0,South,6.9,-,N/A,Rain,Heavy Rain,180,2013-06-22 21:54:00
6:14 PM,71.6,69.8,94,30.03,10.0,South,8.1,-,N/A,Rain,Light Rain,190,2013-06-22 22:14:00
6:34 PM,71.6,68.0,88,30.01,1.5,Calm,Calm,-,N/A,Rain,Light Rain,0,2013-06-22 22:34:00
6:55 PM,71.6,69.8,94,30.00,10.0,WNW,3.5,-,N/A,Rain,Light Rain,300,2013-06-22 22:55:00
7:15 PM,73.4,69.8,88,30.02,10.0,WSW,5.8,-,N/A,,Light Drizzle,240,2013-06-22 23:15:00
7:35 PM,73.4,69.8,88,30.01,10.0,WSW,3.5,-,N/A,Rain,Light Rain,250,2013-06-22 23:35:00
7:55 PM,73.4,69.8,88,30.00,10.0,Calm,Calm,-,N/A,Rain,Light Rain,0,2013-06-22 23:55:00
8:15 PM,75.2,71.6,89,30.00,10.0,SW,4.6,-,N/A,,Clear,230,2013-06-23 00:15:00
8:35 PM,73.4,71.6,94,30.02,10.0,WSW,5.8,-,N/A,,Clear,240,2013-06-23 00:35:00
8:55 PM,73.4,71.6,94,30.03,10.0,WSW,3.5,-,N/A,Rain,Light Rain,240,2013-06-23 00:55:00
9:15 PM,75.2,69.8,83,30.03,10.0,SW,8.1,-,N/A,,Scattered Clouds,220,2013-06-23 01:15:00
9:35 PM,73.4,71.6,94,30.03,10.0,South,6.9,-,N/A,Rain,Light Rain,180,2013-06-23 01:35:00
9:56 PM,73.4,69.8,88,30.04,10.0,SW,5.8,-,N/A,,Mostly Cloudy,220,2013-06-23 01:56:00
10:16 PM,73.4,69.8,88,30.05,10.0,SSW,5.8,-,N/A,,Scattered Clouds,200,2013-06-23 02:16:00
10:36 PM,73.4,69.8,88,30.06,10.0,SSW,4.6,-,N/A,,Clear,200,2013-06-23 02:36:00
10:56 PM,73.4,69.8,88,30.05,10.0,South,3.5,-,N/A,,Scattered Clouds,190,2013-06-23 02:56:00
11:16 PM,73.4,69.8,88,30.05,10.0,Calm,Calm,-,N/A,,Scattered Clouds,0,2013-06-23 03:16:00
11:36 PM,73.4,69.8,88,30.04,10.0,SW,4.6,-,N/A,,Clear,230,2013-06-23 03:36:00
11:56 PM,73.4,69.8,88,30.04,10.0,WSW,4.6,-,N/A,,Clear,250,2013-06-23 03:56:00